Weather History for Ravenna, OH

Change the Weather History Date:

Thursday, September 4, 2014

  Actual Average (KCAK) Record (KCAK)
Temperature  
Mean Temperature 70 °F 67 °F  
Max Temperature 82 °F 77 °F 95 °F (1953)
Min Temperature 58 °F 57 °F 43 °F (1997)
Degree Days  
Heating Degree Days 0 1  
Month to date heating degree days 4  
Since 1 July heating degree days 24  
Cooling Degree Days 5 4  
Month to date cooling degree days 16  
Year to date cooling degree days 598  
Growing Degree Days 20 (Base 50)    
Moisture  
Dew Point 62 °F    
Average Humidity 59    
Maximum Humidity 96    
Minimum Humidity 42    
Precipitation  
Precipitation 0.00 in 0.12 in 1.27 in (1958)
Month to date precipitation 0.48  
Year to date precipitation 27.68  
Snow  
Snow 0.00 in 0.00 in - ()
Month to date snowfall 0.0  
Since 1 July snowfall 0.0  
Since 1 September snowfall 0.0  
Snow Depth -    
Sea Level Pressure  
Sea Level Pressure 30.12 in    
Wind  
Wind Speed 1 mph (SW)    
Max Wind Speed 9 mph    
Max Gust Speed -    
Visibility 8 miles    
Events      
T = Trace of Precipitation, MM = Missing Value Source: NWS Daily Summary

Daily Weather History Graph

Daily Weather History Graph

Search for Another Location

Airport:

Trip Planner

Search our weather history database for the weather conditions in past years. The results will help you decide how hot, cold, wet, or windy it might be!

Date:

Astronomy

Sep. 04, 2014 Rise Set
Actual Time 6:54 AM EDT 7:52 PM EDT
Civil Twilight 6:26 AM EDT 8:20 PM EDT
Nautical Twilight 5:52 AM EDT 8:54 PM EDT
Astronomical Twilight 5:17 AM EDT 9:29 PM EDT
Moon 4:30 PM EDT (9/4) 1:42 AM EDT (9/4)
Length of Visible Light 13h 54m
Length of Day
12h 58m
Waxing Gibbous, 74% of the Moon is Illuminated
Sep 4
Waxing Gibbous
Sep 8
Full
Sep 15
Last Quarter
Sep 24
New
Oct 1
First Quarter

Hourly Weather History & Observations

Time (EDT) Temp. Heat Index Dew Point Humidity Pressure Visibility Wind Dir Wind Speed Gust Speed Precip Events Conditions
12:00 AM 63.5 °F - - N/A% 30.12 in 10.0 mi Calm Calm - N/A   Unknown
12:20 AM 62.6 °F - - N/A% 30.12 in 10.0 mi Calm Calm - N/A   Unknown
12:40 AM 62.2 °F - - N/A% 30.12 in 10.0 mi SE 3.5 mph - N/A   Unknown
1:00 AM 63.5 °F - - N/A% 30.12 in 10.0 mi Calm Calm - N/A   Unknown
1:20 AM 61.5 °F - - N/A% 30.12 in 10.0 mi Calm Calm - N/A   Unknown
1:40 AM 62.6 °F - - N/A% 30.12 in 10.0 mi Calm Calm - N/A   Unknown
2:00 AM 61.3 °F - - N/A% 30.12 in 10.0 mi Calm Calm - N/A   Unknown
2:20 AM 61.7 °F - - N/A% 30.12 in 5.0 mi Calm Calm - N/A   Haze
2:40 AM 60.4 °F - - N/A% 30.11 in 3.0 mi Calm Calm - N/A   Mist
3:00 AM 61.2 °F - - N/A% 30.12 in 5.0 mi Calm Calm - N/A   Haze
3:20 AM 60.6 °F - - N/A% 30.12 in 5.0 mi Calm Calm - N/A   Haze
3:40 AM 60.4 °F - - N/A% 30.12 in 10.0 mi Calm Calm - N/A   Unknown
4:00 AM 59.9 °F - - N/A% 30.12 in 3.0 mi Calm Calm - N/A   Mist
4:21 AM 60.3 °F - - N/A% 30.12 in 5.0 mi Calm Calm - N/A   Haze
4:40 AM 59.7 °F - - N/A% 30.12 in 1.2 mi Calm Calm - N/A   Mist
5:00 AM 59.5 °F - - N/A% 30.12 in 4.0 mi Calm Calm - N/A   Haze
5:20 AM 58.8 °F - - N/A% 30.12 in 3.0 mi Calm Calm - N/A   Mist
5:40 AM 58.3 °F - - N/A% 30.12 in 1.8 mi Calm Calm - N/A   Mist
6:00 AM 58.6 °F - - N/A% 30.11 in 5.0 mi Calm Calm - N/A   Haze
6:20 AM 59.4 °F - - N/A% 30.11 in 7.0 mi Calm Calm - N/A   Unknown
6:40 AM 60.1 °F - - N/A% 30.11 in 5.0 mi Calm Calm - N/A   Haze
7:00 AM 58.1 °F - - N/A% 30.11 in 7.0 mi Calm Calm - N/A   Unknown
7:20 AM 58.6 °F - - N/A% 30.12 in 5.0 mi Calm Calm - N/A   Haze
7:41 AM 59.7 °F - - N/A% 30.12 in 7.0 mi Calm Calm - N/A   Unknown
8:00 AM 62.1 °F - - N/A% 30.12 in 7.0 mi Calm Calm - N/A   Unknown
8:21 AM 64.8 °F - - N/A% 30.12 in 10.0 mi Calm Calm - N/A   Unknown
8:40 AM 66.2 °F - - N/A% 30.12 in 10.0 mi Calm Calm - N/A   Unknown
9:00 AM 68.7 °F - - N/A% 30.12 in 7.0 mi Calm Calm - N/A   Unknown
9:21 AM 71.4 °F - - N/A% 30.12 in 7.0 mi Calm Calm - N/A   Unknown
9:40 AM 72.7 °F - 65.3 °F 78% 30.13 in 7.0 mi Calm Calm - N/A   Unknown
10:00 AM 73.9 °F - 65.5 °F 75% 30.13 in 10.0 mi Calm Calm - N/A   Unknown
10:21 AM 75.6 °F - 64.8 °F 69% 30.14 in 5.0 mi Calm Calm - N/A   Haze
10:40 AM 77.2 °F - 65.7 °F 67% 30.14 in 7.0 mi WSW 3.5 mph - N/A   Unknown
11:00 AM 77.7 °F - 64.6 °F 64% 30.15 in 10.0 mi WSW 3.5 mph - N/A   Unknown
11:20 AM 78.8 °F - 62.1 °F 56% 30.15 in 7.0 mi West 8.1 mph - N/A   Unknown
11:40 AM 79.5 °F - 61.2 °F 53% 30.15 in 10.0 mi WSW 5.8 mph - N/A   Unknown
12:00 PM 80.2 °F 80.9 °F 59.7 °F 49% 30.15 in 10.0 mi SW 3.5 mph - N/A   Unknown
12:20 PM 81.0 °F 81.0 °F 57.4 °F 44% 30.14 in 10.0 mi WSW 5.8 mph - N/A   Unknown
12:40 PM 81.1 °F 81.3 °F 57.7 °F 45% 30.14 in 10.0 mi WSW 9.2 mph - N/A   Unknown
1:00 PM 81.5 °F 81.6 °F 58.1 °F 45% 30.13 in 10.0 mi West 6.9 mph - N/A   Unknown
1:21 PM 81.5 °F 81.5 °F 57.6 °F 44% 30.13 in 10.0 mi SW 5.8 mph - N/A   Unknown
1:40 PM 81.0 °F 81.2 °F 58.6 °F 46% 30.12 in 10.0 mi WSW 6.9 mph - N/A   Unknown
2:00 PM 81.5 °F 81.7 °F 59.0 °F 46% 30.12 in 10.0 mi SW 5.8 mph - N/A   Unknown
2:21 PM 81.5 °F 81.7 °F 58.8 °F 46% 30.12 in 10.0 mi WSW 4.6 mph - N/A   Unknown
2:40 PM 82.0 °F 82.5 °F 60.8 °F 48% 30.12 in 10.0 mi WSW 4.6 mph - N/A   Unknown
3:00 PM 82.6 °F 82.6 °F 59.4 °F 45% 30.10 in 10.0 mi SW 6.9 mph - N/A   Unknown
3:21 PM 82.8 °F 82.7 °F 58.6 °F 44% 30.10 in 10.0 mi SSW 3.5 mph - N/A   Unknown
3:40 PM 82.6 °F 82.5 °F 58.5 °F 44% 30.10 in 10.0 mi South 5.8 mph - N/A   Unknown
4:00 PM 82.4 °F 82.2 °F 58.1 °F 43% 30.10 in 10.0 mi SSE 3.5 mph - N/A   Unknown
4:21 PM 82.6 °F 82.2 °F 57.2 °F 42% 30.10 in 10.0 mi WSW 5.8 mph - N/A   Unknown
4:40 PM 82.6 °F 82.6 °F 59.5 °F 45% 30.10 in 10.0 mi SSW 5.8 mph - N/A   Unknown
5:00 PM 82.6 °F 82.3 °F 58.3 °F 43% 30.10 in 10.0 mi West 3.5 mph - N/A   Unknown
5:20 PM 82.4 °F 82.5 °F 59.2 °F 45% 30.10 in 10.0 mi SW 3.5 mph - N/A   Unknown
5:40 PM 82.4 °F 82.6 °F 59.7 °F 46% 30.10 in 10.0 mi Calm Calm - N/A   Unknown
6:00 PM 81.7 °F 82.2 °F 60.3 °F 48% 30.10 in 10.0 mi Calm Calm - N/A   Unknown
6:20 PM 81.3 °F 81.9 °F 60.4 °F 49% 30.10 in 10.0 mi Calm Calm - N/A   Unknown
6:40 PM 79.9 °F - 61.2 °F 53% 30.09 in 10.0 mi SSE 3.5 mph - N/A   Unknown
7:00 PM 79.3 °F - 60.8 °F 53% 30.09 in 10.0 mi Calm Calm - N/A   Unknown
7:20 PM 78.1 °F - 61.7 °F 57% 30.10 in 10.0 mi Calm Calm - N/A   Unknown
7:40 PM 74.7 °F - 63.7 °F 69% 30.09 in 10.0 mi Calm Calm - N/A   Unknown
8:00 PM 72.0 °F - 65.1 °F 79% 30.09 in 10.0 mi Calm Calm - N/A   Unknown
8:21 PM 71.2 °F - 67.5 °F 88% 30.10 in 10.0 mi Calm Calm - N/A   Unknown
8:40 PM 72.7 °F - 64.0 °F 74% 30.11 in 10.0 mi Calm Calm - N/A   Unknown
8:59 PM 70.0 °F - 66.6 °F 89% 30.12 in 10.0 mi Calm Calm - N/A   Unknown
9:21 PM 70.9 °F - 65.8 °F 84% 30.12 in 10.0 mi Calm Calm - N/A   Unknown
9:40 PM 72.1 °F - 64.8 °F 78% 30.11 in 10.0 mi Calm Calm - N/A   Unknown
10:21 PM 73.6 °F - 63.0 °F 69% 30.10 in 10.0 mi Calm Calm - N/A   Unknown
10:40 PM 73.0 °F - 62.8 °F 70% 30.10 in 10.0 mi Calm Calm - N/A   Unknown
11:00 PM 72.9 °F - 63.0 °F 71% 30.11 in 10.0 mi Calm Calm - N/A   Unknown
11:21 PM 71.2 °F - 63.7 °F 77% 30.11 in 10.0 mi Calm Calm - N/A   Unknown
11:40 PM 69.1 °F - 67.8 °F 96% 30.13 in 10.0 mi Calm Calm - N/A   Unknown